| time (UTC) | temp F | wind direction | speed MPH | gust MPH | rain 1hr in | rain 24hr in | rain mn in | humidity % | barometer mb |
| 20260505121517 | 67 | 225 | 2.0 | 7.0 | 0.00 | 0.00 | 0.00 | 66 | 1011.3 |
| 20260505121039 | 67 | 0.0 | 2.0 | 0.00 | 0.00 | 0.00 | 67 | 1011.3 | |
| 20260505120517 | 66 | 0.0 | 4.0 | 0.00 | 0.00 | 0.00 | 68 | 1011.2 | |
| 20260505120037 | 65 | 225 | 1.0 | 5.0 | 0.00 | 0.00 | 0.00 | 69 | 1011.2 |
| 20260505115518 | 65 | 225 | 1.0 | 4.0 | 0.00 | 0.00 | 0.00 | 69 | 1011.2 |
| 20260505115038 | 65 | 0.0 | 2.0 | 0.00 | 0.00 | 0.00 | 70 | 1011.3 | |
| 20260505114537 | 64 | 248 | 1.0 | 3.0 | 0.00 | 0.00 | 0.00 | 71 | 1011.3 |
| 20260505114017 | 64 | 0.0 | 2.0 | 0.00 | 0.00 | 0.00 | 71 | 1011.3 | |
| 20260505113537 | 63 | 225 | 1.0 | 5.0 | 0.00 | 0.00 | 0.00 | 72 | 1011.4 |
| 20260505113017 | 62 | 225 | 2.0 | 5.0 | 0.00 | 0.00 | 0.00 | 72 | 1011.4 |
| 20260505112517 | 62 | 225 | 2.0 | 4.0 | 0.00 | 0.00 | 0.00 | 72 | 1011.4 |
| 20260505112018 | 62 | 203 | 2.0 | 4.0 | 0.00 | 0.00 | 0.00 | 72 | 1011.4 |
| 20260505111517 | 62 | 225 | 2.0 | 5.0 | 0.00 | 0.00 | 0.00 | 73 | 1011.4 |
| 20260505111017 | 61 | 225 | 1.0 | 4.0 | 0.00 | 0.00 | 0.00 | 73 | 1011.3 |
| 20260505110516 | 61 | 225 | 2.0 | 4.0 | 0.00 | 0.00 | 0.00 | 73 | 1011.4 |
| 20260505102017 | 59 | 270 | 2.0 | 6.0 | 0.00 | 0.00 | 0.00 | 78 | 1011.3 |
| 20260505101517 | 59 | 248 | 1.0 | 3.0 | 0.00 | 0.00 | 0.00 | 78 | 1011.2 |
| 20260505101017 | 59 | 248 | 2.0 | 4.0 | 0.00 | 0.00 | 0.00 | 78 | 1011.0 |
| 20260505100516 | 59 | 225 | 1.0 | 5.0 | 0.00 | 0.00 | 0.00 | 78 | 1010.7 |
| 20260505100017 | 59 | 225 | 3.0 | 5.0 | 0.00 | 0.00 | 0.00 | 78 | 1010.7 |
| 20260505095537 | 59 | 225 | 3.0 | 9.0 | 0.00 | 0.00 | 0.00 | 79 | 1010.6 |
| 20260505095017 | 58 | 225 | 3.0 | 7.0 | 0.00 | 0.00 | 0.00 | 79 | 1010.5 |
| 20260505094517 | 58 | 225 | 3.0 | 7.0 | 0.00 | 0.00 | 0.00 | 80 | 1010.4 |
| 20260505094017 | 58 | 225 | 3.0 | 8.0 | 0.00 | 0.00 | 0.00 | 80 | 1010.4 |
| 20260505093518 | 57 | 225 | 2.0 | 5.0 | 0.00 | 0.00 | 0.00 | 80 | 1010.2 |
| 20260505093018 | 57 | 225 | 2.0 | 6.0 | 0.00 | 0.00 | 0.00 | 81 | 1010.2 |
| 20260505092537 | 57 | 225 | 1.0 | 4.0 | 0.00 | 0.00 | 0.00 | 81 | 1010.3 |
| 20260505092017 | 57 | 0.0 | 1.0 | 0.00 | 0.00 | 0.00 | 80 | 1010.3 | |
| 20260505091517 | 57 | 0.0 | 0.0 | 0.00 | 0.00 | 0.00 | 80 | 1010.3 | |
| 20260505091017 | 57 | 0.0 | 0.0 | 0.00 | 0.00 | 0.00 | 80 | 1010.4 | |
| 20260505090517 | 57 | 0.0 | 0.0 | 0.00 | 0.00 | 0.00 | 80 | 1010.4 | |
| 20260505090016 | 57 | 0.0 | 0.0 | 0.00 | 0.00 | 0.00 | 80 | 1010.4 | |
| 20260505085517 | 57 | 0.0 | 2.0 | 0.00 | 0.00 | 0.00 | 80 | 1010.5 | |
| 20260505085017 | 57 | 0.0 | 1.0 | 0.00 | 0.00 | 0.00 | 80 | 1010.4 | |
| 20260505084517 | 57 | 0.0 | 0.0 | 0.00 | 0.00 | 0.00 | 80 | 1010.3 | |
| 20260505084017 | 57 | 0.0 | 0.0 | 0.00 | 0.00 | 0.00 | 80 | 1010.3 | |
| 20260505083517 | 57 | 0.0 | 1.0 | 0.00 | 0.00 | 0.00 | 80 | 1010.4 | |
| 20260505083037 | 57 | 0.0 | 1.0 | 0.00 | 0.00 | 0.00 | 80 | 1010.3 | |
| 20260505082536 | 57 | 0.0 | 0.0 | 0.00 | 0.00 | 0.00 | 80 | 1010.3 | |
| 20260505082016 | 57 | 0.0 | 1.0 | 0.00 | 0.00 | 0.00 | 79 | 1010.3 | |
| 20260505081518 | 57 | 0.0 | 1.0 | 0.00 | 0.00 | 0.00 | 79 | 1010.3 | |
| 20260505081016 | 57 | 0.0 | 0.0 | 0.00 | 0.00 | 0.00 | 79 | 1010.3 | |
| 20260505080516 | 57 | 0.0 | 0.0 | 0.00 | 0.00 | 0.00 | 79 | 1010.4 | |
| 20260505080038 | 57 | 0.0 | 0.0 | 0.00 | 0.00 | 0.00 | 79 | 1010.5 | |
| 20260505075518 | 57 | 0.0 | 1.0 | 0.00 | 0.00 | 0.00 | 79 | 1010.4 | |
| 20260505075036 | 57 | 0.0 | 2.0 | 0.00 | 0.00 | 0.00 | 79 | 1010.4 | |
| 20260505074517 | 57 | 0.0 | 1.0 | 0.00 | 0.00 | 0.00 | 79 | 1010.3 | |
| 20260505074017 | 57 | 0.0 | 0.0 | 0.00 | 0.00 | 0.00 | 79 | 1010.3 | |
| 20260505073517 | 57 | 0.0 | 2.0 | 0.00 | 0.00 | 0.00 | 79 | 1010.2 | |
| 20260505073018 | 57 | 0.0 | 0.0 | 0.00 | 0.00 | 0.00 | 78 | 1010.3 | |
| 20260505072517 | 57 | 0.0 | 0.0 | 0.00 | 0.00 | 0.00 | 78 | 1010.2 | |
| 20260505072018 | 57 | 0.0 | 0.0 | 0.00 | 0.00 | 0.00 | 78 | 1010.2 | |
| 20260505071556 | 57 | 0.0 | 1.0 | 0.00 | 0.00 | 0.00 | 78 | 1010.2 | |
| 20260505071037 | 57 | 0.0 | 1.0 | 0.00 | 0.00 | 0.00 | 78 | 1010.2 | |
| 20260505070516 | 57 | 0.0 | 0.0 | 0.00 | 0.00 | 0.00 | 77 | 1010.2 | |
| 20260505070036 | 57 | 0.0 | 1.0 | 0.00 | 0.00 | 0.00 | 77 | 1010.2 | |
| 20260505065516 | 57 | 0.0 | 1.0 | 0.00 | 0.00 | 0.00 | 76 | 1010.3 | |
| 20260505065016 | 57 | 0.0 | 0.0 | 0.00 | 0.00 | 0.00 | 76 | 1010.2 | |
| 20260505064516 | 57 | 0.0 | 0.0 | 0.00 | 0.00 | 0.00 | 75 | 1010.1 | |
| 20260505064016 | 57 | 0.0 | 1.0 | 0.00 | 0.00 | 0.00 | 75 | 1010.2 | |
| 20260505063517 | 58 | 0.0 | 0.0 | 0.00 | 0.00 | 0.00 | 75 | 1010.2 | |
| 20260505063017 | 58 | 0.0 | 1.0 | 0.00 | 0.00 | 0.00 | 74 | 1010.3 | |
| 20260505062517 | 58 | 0.0 | 0.0 | 0.00 | 0.00 | 0.00 | 74 | 1010.3 | |
| 20260505062016 | 58 | 0.0 | 1.0 | 0.00 | 0.00 | 0.00 | 74 | 1010.3 | |
| 20260505061516 | 58 | 0.0 | 2.0 | 0.00 | 0.00 | 0.00 | 73 | 1010.2 | |
| 20260505061037 | 59 | 158 | 1.0 | 2.0 | 0.00 | 0.00 | 0.00 | 73 | 1010.2 |
| 20260505060536 | 59 | 135 | 1.0 | 3.0 | 0.00 | 0.00 | 0.00 | 72 | 1010.3 |
| 20260505060016 | 59 | 135 | 1.0 | 3.0 | 0.00 | 0.00 | 0.00 | 71 | 1010.3 |
| 20260505055516 | 59 | 135 | 1.0 | 3.0 | 0.00 | 0.00 | 0.00 | 71 | 1010.3 |
| 20260505055036 | 59 | 0.0 | 3.0 | 0.00 | 0.00 | 0.00 | 71 | 1010.3 | |
| 20260505054618 | 59 | 0.0 | 2.0 | 0.00 | 0.00 | 0.00 | 71 | 1010.3 | |
| 20260505054016 | 59 | 0.0 | 2.0 | 0.00 | 0.00 | 0.00 | 71 | 1010.3 | |
| 20260505053516 | 59 | 135 | 1.0 | 9.0 | 0.00 | 0.00 | 0.00 | 71 | 1010.4 |
| 20260505053036 | 59 | 0.0 | 5.0 | 0.00 | 0.00 | 0.00 | 71 | 1010.4 | |
| 20260505052516 | 59 | 0.0 | 2.0 | 0.00 | 0.00 | 0.00 | 71 | 1010.5 | |
| 20260505052016 | 59 | 0.0 | 2.0 | 0.00 | 0.00 | 0.00 | 71 | 1010.5 | |
| 20260505051516 | 59 | 0.0 | 1.0 | 0.00 | 0.00 | 0.00 | 71 | 1010.6 | |
| 20260505051016 | 59 | 0.0 | 1.0 | 0.00 | 0.00 | 0.00 | 71 | 1010.6 | |
| 20260505050516 | 59 | 0.0 | 3.0 | 0.00 | 0.00 | 0.00 | 71 | 1010.6 | |
| 20260505041516 | 59 | 0.0 | 1.0 | 0.00 | 0.00 | 0.00 | 70 | 1010.9 | |
| 20260505041016 | 59 | 0.0 | 3.0 | 0.00 | 0.00 | 0.00 | 70 | 1010.9 | |
| 20260505040517 | 60 | 0.0 | 2.0 | 0.00 | 0.00 | 0.00 | 70 | 1011.0 | |
| 20260505040037 | 60 | 158 | 1.0 | 2.0 | 0.00 | 0.00 | 0.00 | 70 | 1011.0 |
| 20260505035517 | 60 | 0.0 | 2.0 | 0.00 | 0.00 | 0.00 | 69 | 1011.0 | |
| 20260505035017 | 60 | 0.0 | 3.0 | 0.00 | 0.00 | 0.00 | 69 | 1011.0 | |
| 20260505034517 | 60 | 0.0 | 2.0 | 0.00 | 0.00 | 0.00 | 68 | 1011.0 | |
| 20260505034037 | 60 | 225 | 1.0 | 3.0 | 0.00 | 0.00 | 0.00 | 68 | 1011.0 |
| 20260505033517 | 60 | 0.0 | 2.0 | 0.00 | 0.00 | 0.00 | 68 | 1011.0 | |
| 20260505033017 | 60 | 203 | 1.0 | 5.0 | 0.00 | 0.00 | 0.00 | 68 | 1011.1 |
| 20260505032518 | 60 | 225 | 2.0 | 5.0 | 0.00 | 0.00 | 0.00 | 67 | 1011.0 |
| 20260505032016 | 60 | 203 | 1.0 | 4.0 | 0.00 | 0.00 | 0.00 | 67 | 1011.1 |
| 20260505031518 | 60 | 203 | 2.0 | 6.0 | 0.00 | 0.00 | 0.00 | 67 | 1011.2 |
| 20260505031037 | 60 | 225 | 2.0 | 8.0 | 0.00 | 0.00 | 0.00 | 66 | 1011.2 |
| 20260505030537 | 60 | 225 | 1.0 | 8.0 | 0.00 | 0.00 | 0.00 | 65 | 1011.1 |
| 20260505030017 | 61 | 203 | 2.0 | 6.0 | 0.00 | 0.00 | 0.00 | 65 | 1011.2 |
| 20260505025518 | 61 | 203 | 3.0 | 11.0 | 0.00 | 0.00 | 0.00 | 64 | 1011.2 |
| 20260505025016 | 61 | 225 | 3.0 | 12.0 | 0.00 | 0.00 | 0.00 | 64 | 1011.3 |
| 20260505024516 | 61 | 203 | 1.0 | 4.0 | 0.00 | 0.00 | 0.00 | 63 | 1011.3 |
| 20260505024016 | 61 | 225 | 2.0 | 8.0 | 0.00 | 0.00 | 0.00 | 63 | 1011.3 |
| 20260505023518 | 61 | 225 | 4.0 | 9.0 | 0.00 | 0.00 | 0.00 | 62 | 1011.3 |
| 20260505023017 | 62 | 203 | 2.0 | 7.0 | 0.00 | 0.00 | 0.00 | 62 | 1011.3 |
| 20260505022517 | 62 | 225 | 2.0 | 5.0 | 0.00 | 0.00 | 0.00 | 61 | 1011.3 |
| 20260505022036 | 62 | 203 | 3.0 | 11.0 | 0.00 | 0.00 | 0.00 | 60 | 1011.4 |
| 20260505021518 | 62 | 225 | 5.0 | 13.0 | 0.00 | 0.00 | 0.00 | 60 | 1011.5 |
| 20260505021017 | 62 | 203 | 5.0 | 10.0 | 0.00 | 0.00 | 0.00 | 58 | 1011.4 |
| 20260505020518 | 63 | 225 | 4.0 | 11.0 | 0.00 | 0.00 | 0.00 | 58 | 1011.4 |
| 20260505020017 | 63 | 225 | 4.0 | 10.0 | 0.00 | 0.00 | 0.00 | 57 | 1011.3 |
| 20260505015516 | 63 | 225 | 4.0 | 10.0 | 0.00 | 0.00 | 0.00 | 57 | 1011.2 |
| 20260505015017 | 63 | 225 | 4.0 | 11.0 | 0.00 | 0.00 | 0.00 | 56 | 1011.2 |
| 20260505014516 | 63 | 225 | 4.0 | 11.0 | 0.00 | 0.00 | 0.00 | 56 | 1011.2 |
| 20260505014017 | 63 | 225 | 3.0 | 10.0 | 0.00 | 0.00 | 0.00 | 56 | 1011.2 |
| 20260505013518 | 64 | 225 | 4.0 | 10.0 | 0.00 | 0.00 | 0.00 | 56 | 1011.2 |
| 20260505013056 | 64 | 225 | 4.0 | 8.0 | 0.00 | 0.00 | 0.00 | 56 | 1011.2 |
| 20260505012618 | 64 | 225 | 4.0 | 10.0 | 0.00 | 0.00 | 0.00 | 55 | 1011.1 |
| 20260505012016 | 64 | 225 | 4.0 | 10.0 | 0.00 | 0.00 | 0.00 | 56 | 1010.9 |
| 20260505011537 | 64 | 225 | 3.0 | 9.0 | 0.00 | 0.00 | 0.00 | 56 | 1010.9 |
| 20260505011018 | 64 | 225 | 3.0 | 10.0 | 0.00 | 0.00 | 0.00 | 55 | 1010.8 |
| 20260505010517 | 64 | 225 | 3.0 | 8.0 | 0.00 | 0.00 | 0.00 | 55 | 1010.8 |
| 20260505010016 | 64 | 225 | 3.0 | 10.0 | 0.00 | 0.00 | 0.00 | 55 | 1010.7 |
| 20260505005537 | 64 | 225 | 4.0 | 11.0 | 0.00 | 0.00 | 0.00 | 54 | 1010.5 |
| 20260505005016 | 64 | 225 | 3.0 | 8.0 | 0.00 | 0.00 | 0.00 | 55 | 1010.5 |
| 20260505004518 | 64 | 203 | 3.0 | 12.0 | 0.00 | 0.00 | 0.00 | 56 | 1010.5 |
| 20260505004016 | 64 | 225 | 3.0 | 8.0 | 0.00 | 0.00 | 0.00 | 57 | 1010.4 |
| 20260505003517 | 64 | 203 | 3.0 | 12.0 | 0.00 | 0.00 | 0.00 | 58 | 1010.3 |
| 20260505003016 | 64 | 180 | 2.0 | 9.0 | 0.00 | 0.00 | 0.00 | 59 | 1010.4 |
| 20260505002558 | 64 | 225 | 3.0 | 8.0 | 0.00 | 0.00 | 0.00 | 59 | 1010.2 |
| 20260505002037 | 64 | 225 | 3.0 | 9.0 | 0.00 | 0.00 | 0.00 | 59 | 1010.1 |
| 20260505001516 | 64 | 225 | 3.0 | 7.0 | 0.00 | 0.00 | 0.00 | 59 | 1010.1 |
| 20260505001017 | 64 | 225 | 3.0 | 9.0 | 0.00 | 0.00 | 0.00 | 59 | 1010.0 |
| 20260505000517 | 65 | 225 | 3.0 | 10.0 | 0.00 | 0.00 | 0.00 | 59 | 1009.9 |
| 20260505000017 | 65 | 225 | 3.0 | 8.0 | 0.00 | 0.00 | 0.00 | 59 | 1009.9 |
| 20260504235517 | 65 | 225 | 3.0 | 7.0 | 0.00 | 0.00 | 0.00 | 58 | 1009.8 |
| 20260504235016 | 65 | 203 | 2.0 | 6.0 | 0.00 | 0.00 | 0.00 | 58 | 1009.8 |
| 20260504234516 | 66 | 225 | 3.0 | 8.0 | 0.00 | 0.00 | 0.00 | 58 | 1009.7 |
| 20260504234038 | 66 | 225 | 2.0 | 6.0 | 0.00 | 0.00 | 0.00 | 58 | 1009.6 |
| 20260504233516 | 66 | 225 | 3.0 | 9.0 | 0.00 | 0.00 | 0.00 | 57 | 1009.5 |
| 20260504233016 | 66 | 225 | 2.0 | 8.0 | 0.00 | 0.00 | 0.00 | 57 | 1009.4 |
| 20260504232516 | 66 | 135 | 1.0 | 4.0 | 0.00 | 0.00 | 0.00 | 57 | 1009.4 |
| 20260504232016 | 67 | 135 | 1.0 | 3.0 | 0.00 | 0.00 | 0.00 | 56 | 1009.4 |
| 20260504231516 | 67 | 135 | 1.0 | 2.0 | 0.00 | 0.00 | 0.00 | 56 | 1009.3 |
| 20260504231016 | 67 | 135 | 2.0 | 8.0 | 0.00 | 0.00 | 0.00 | 55 | 1009.3 |
| 20260504230516 | 67 | 135 | 1.0 | 7.0 | 0.00 | 0.00 | 0.00 | 53 | 1009.3 |
| 20260504230017 | 68 | 158 | 1.0 | 5.0 | 0.00 | 0.00 | 0.00 | 52 | 1009.2 |
| 20260504225536 | 68 | 158 | 1.0 | 3.0 | 0.00 | 0.00 | 0.00 | 52 | 1009.2 |
| 20260504225017 | 68 | 135 | 1.0 | 3.0 | 0.00 | 0.00 | 0.00 | 53 | 1009.2 |
| 20260504224516 | 68 | 135 | 1.0 | 4.0 | 0.00 | 0.00 | 0.00 | 53 | 1009.3 |
| 20260504224016 | 68 | 180 | 1.0 | 4.0 | 0.00 | 0.00 | 0.00 | 52 | 1009.3 |
| 20260504223516 | 68 | 135 | 1.0 | 3.0 | 0.00 | 0.00 | 0.00 | 52 | 1009.2 |
| 20260504223017 | 68 | 135 | 2.0 | 8.0 | 0.00 | 0.00 | 0.00 | 52 | 1009.3 |
| 20260504222517 | 69 | 158 | 1.0 | 5.0 | 0.00 | 0.00 | 0.00 | 51 | 1009.3 |
| 20260504222016 | 69 | 180 | 2.0 | 5.0 | 0.00 | 0.00 | 0.00 | 50 | 1009.3 |
| 20260504221516 | 68 | 158 | 2.0 | 7.0 | 0.00 | 0.00 | 0.00 | 50 | 1009.3 |
| 20260504221016 | 69 | 135 | 3.0 | 8.0 | 0.00 | 0.00 | 0.00 | 52 | 1009.4 |
| 20260504220517 | 69 | 135 | 4.0 | 10.0 | 0.00 | 0.00 | 0.00 | 52 | 1009.4 |
| 20260504220018 | 70 | 135 | 2.0 | 7.0 | 0.00 | 0.00 | 0.00 | 50 | 1009.4 |
| 20260504215516 | 71 | 135 | 2.0 | 6.0 | 0.00 | 0.00 | 0.00 | 48 | 1009.5 |
| 20260504215016 | 71 | 158 | 2.0 | 9.0 | 0.00 | 0.00 | 0.00 | 46 | 1009.5 |
| 20260504214516 | 71 | 180 | 1.0 | 4.0 | 0.00 | 0.00 | 0.00 | 45 | 1009.6 |
| 20260504214016 | 71 | 135 | 1.0 | 6.0 | 0.00 | 0.00 | 0.00 | 45 | 1009.5 |
| 20260504213556 | 71 | 158 | 1.0 | 7.0 | 0.00 | 0.00 | 0.00 | 44 | 1009.6 |
| 20260504213057 | 71 | 158 | 1.0 | 4.0 | 0.00 | 0.00 | 0.00 | 45 | 1009.7 |
| 20260504212516 | 71 | 158 | 1.0 | 6.0 | 0.00 | 0.00 | 0.00 | 45 | 1009.8 |
| 20260504212016 | 72 | 135 | 3.0 | 8.0 | 0.00 | 0.00 | 0.00 | 43 | 1009.7 |
| 20260504211516 | 72 | 135 | 2.0 | 7.0 | 0.00 | 0.00 | 0.00 | 44 | 1009.8 |
| 20260504211036 | 72 | 135 | 1.0 | 5.0 | 0.00 | 0.00 | 0.00 | 45 | 1009.8 |
| 20260504210517 | 73 | 135 | 1.0 | 8.0 | 0.00 | 0.00 | 0.00 | 44 | 1009.7 |
| 20260504210016 | 73 | 135 | 3.0 | 8.0 | 0.00 | 0.00 | 0.00 | 43 | 1009.7 |
| 20260504205516 | 74 | 135 | 2.0 | 8.0 | 0.00 | 0.00 | 0.00 | 41 | 1009.6 |
| 20260504205016 | 75 | 135 | 2.0 | 9.0 | 0.00 | 0.00 | 0.00 | 39 | 1009.6 |
| 20260504204517 | 75 | 225 | 3.0 | 9.0 | 0.00 | 0.00 | 0.00 | 36 | 1009.6 |
| 20260504204016 | 75 | 158 | 2.0 | 8.0 | 0.00 | 0.00 | 0.00 | 37 | 1009.6 |
| 20260504203516 | 75 | 158 | 1.0 | 10.0 | 0.00 | 0.00 | 0.00 | 37 | 1009.7 |
| 20260504203016 | 76 | 180 | 1.0 | 5.0 | 0.00 | 0.00 | 0.00 | 38 | 1009.7 |
| 20260504202517 | 76 | 203 | 2.0 | 11.0 | 0.00 | 0.00 | 0.00 | 37 | 1009.8 |
| 20260504202016 | 76 | 225 | 2.0 | 8.0 | 0.00 | 0.00 | 0.00 | 36 | 1009.7 |
| 20260504201516 | 75 | 248 | 3.0 | 8.0 | 0.00 | 0.00 | 0.00 | 36 | 1009.7 |
| 20260504201016 | 76 | 225 | 3.0 | 8.0 | 0.00 | 0.00 | 0.00 | 36 | 1009.8 |
| 20260504200517 | 76 | 225 | 3.0 | 12.0 | 0.00 | 0.00 | 0.00 | 34 | 1009.8 |
| 20260504200016 | 75 | 248 | 6.0 | 16.0 | 0.00 | 0.00 | 0.00 | 32 | 1009.7 |
| 20260504195516 | 76 | 203 | 5.0 | 13.0 | 0.00 | 0.00 | 0.00 | 33 | 1009.9 |
| 20260504195016 | 76 | 180 | 3.0 | 8.0 | 0.00 | 0.00 | 0.00 | 34 | 1009.9 |
| 20260504194516 | 75 | 225 | 4.0 | 11.0 | 0.00 | 0.00 | 0.00 | 33 | 1009.9 |
| 20260504194016 | 75 | 225 | 6.0 | 13.0 | 0.00 | 0.00 | 0.00 | 32 | 1010.0 |
| 20260504193516 | 74 | 225 | 4.0 | 12.0 | 0.00 | 0.00 | 0.00 | 32 | 1010.0 |
| 20260504193016 | 74 | 225 | 8.0 | 17.0 | 0.00 | 0.00 | 0.00 | 33 | 1010.1 |
| 20260504192516 | 74 | 225 | 8.0 | 18.0 | 0.00 | 0.00 | 0.00 | 33 | 1010.0 |
| 20260504192036 | 74 | 225 | 7.0 | 17.0 | 0.00 | 0.00 | 0.00 | 32 | 1010.2 |
| 20260504191516 | 74 | 225 | 5.0 | 15.0 | 0.00 | 0.00 | 0.00 | 34 | 1010.2 |
| 20260504191018 | 74 | 203 | 6.0 | 14.0 | 0.00 | 0.00 | 0.00 | 33 | 1010.3 |
| 20260504190516 | 74 | 225 | 5.0 | 13.0 | 0.00 | 0.00 | 0.00 | 34 | 1010.3 |
| 20260504190016 | 74 | 225 | 6.0 | 13.0 | 0.00 | 0.00 | 0.00 | 34 | 1010.5 |
| 20260504185516 | 73 | 225 | 5.0 | 16.0 | 0.00 | 0.00 | 0.00 | 34 | 1010.5 |
| 20260504185017 | 73 | 225 | 5.0 | 13.0 | 0.00 | 0.00 | 0.00 | 33 | 1010.7 |
| 20260504184516 | 73 | 225 | 6.0 | 12.0 | 0.00 | 0.00 | 0.00 | 33 | 1010.8 |
| 20260504184016 | 72 | 225 | 6.0 | 15.0 | 0.00 | 0.00 | 0.00 | 34 | 1010.9 |
| 20260504183537 | 72 | 225 | 6.0 | 14.0 | 0.00 | 0.00 | 0.00 | 35 | 1010.9 |
| 20260504183016 | 73 | 225 | 7.0 | 13.0 | 0.00 | 0.00 | 0.00 | 34 | 1010.8 |
| 20260504182517 | 73 | 225 | 7.0 | 14.0 | 0.00 | 0.00 | 0.00 | 34 | 1011.0 |
| 20260504182016 | 73 | 225 | 5.0 | 13.0 | 0.00 | 0.00 | 0.00 | 36 | 1011.0 |
| 20260504181516 | 73 | 225 | 6.0 | 14.0 | 0.00 | 0.00 | 0.00 | 34 | 1011.1 |
| 20260504181017 | 72 | 225 | 7.0 | 18.0 | 0.00 | 0.00 | 0.00 | 36 | 1011.0 |
| 20260504180516 | 72 | 225 | 7.0 | 13.0 | 0.00 | 0.00 | 0.00 | 35 | 1011.1 |
| 20260504180016 | 72 | 203 | 8.0 | 16.0 | 0.00 | 0.00 | 0.00 | 35 | 1011.3 |
| 20260504175516 | 72 | 225 | 7.0 | 13.0 | 0.00 | 0.00 | 0.00 | 34 | 1011.3 |
| 20260504175016 | 72 | 225 | 7.0 | 15.0 | 0.00 | 0.00 | 0.00 | 35 | 1011.4 |
| 20260504174517 | 72 | 225 | 5.0 | 16.0 | 0.00 | 0.00 | 0.00 | 36 | 1011.4 |
| 20260504174017 | 72 | 225 | 5.0 | 16.0 | 0.00 | 0.00 | 0.00 | 36 | 1011.5 |
| 20260504173516 | 72 | 225 | 6.0 | 16.0 | 0.00 | 0.00 | 0.00 | 35 | 1011.5 |
| 20260504173016 | 71 | 225 | 5.0 | 12.0 | 0.00 | 0.00 | 0.00 | 36 | 1011.5 |
| 20260504172516 | 70 | 225 | 9.0 | 17.0 | 0.00 | 0.00 | 0.00 | 35 | 1011.5 |
| 20260504172037 | 71 | 225 | 7.0 | 18.0 | 0.00 | 0.00 | 0.00 | 36 | 1011.6 |
| 20260504171557 | 71 | 225 | 8.0 | 15.0 | 0.00 | 0.00 | 0.00 | 36 | 1011.7 |
| 20260504171016 | 70 | 225 | 9.0 | 18.0 | 0.00 | 0.00 | 0.00 | 36 | 1011.7 |
| 20260504170535 | 70 | 203 | 6.0 | 12.0 | 0.00 | 0.00 | 0.00 | 37 | 1011.8 |
| 20260504151016 | 67 | 225 | 8.0 | 16.0 | 0.00 | 0.00 | 0.00 | 39 | 1013.4 |
| 20260504150517 | 67 | 225 | 5.0 | 14.0 | 0.00 | 0.00 | 0.00 | 40 | 1013.4 |
| 20260504141015 | 63 | 225 | 8.0 | 17.0 | 0.00 | 0.00 | 0.00 | 47 | 1013.6 |
| 20260504140537 | 63 | 203 | 7.0 | 13.0 | 0.00 | 0.00 | 0.00 | 47 | 1013.5 |
| 20260504130535 | 60 | 203 | 5.0 | 13.0 | 0.00 | 0.00 | 0.00 | 55 | 1014.1 |